KQ4KX Weather Reports


Display with metric or nautical units.
time (UTC)temp
F
wind
direction
speed
MPH
gust
MPH
rain 1hr
in
rain 24hr
in
rain mn
in
humidity
%
barometer
mb
20260510153507 87 228 4.0 9.0 0.00 0.01 0.00 64 1017.0
20260510152937 87 211 4.0 9.0 0.00 0.01 0.00 63 1017.0
20260510152407 87 206 3.0 10.0 0.00 0.01 0.00 63 1017.0
20260510151407 87 237 4.0 9.0 0.00 0.01 0.00 64 1017.0
20260510150907 87 244 3.0 9.0 0.00 0.01 0.00 63 1017.0
20260510145524 86 229 3.0 8.0 0.00 0.01 0.00 70 1017.0
20260510145307 86 229 3.0 8.0 0.00 0.01 0.00 70 1017.0
20260510144237 86 239 3.0 10.0 0.00 0.01 0.00 70 1017.0
20260510143737 85 224 3.0 7.0 0.00 0.01 0.00 74 1017.1
20260510143206 84 200 3.0 7.0 0.00 0.01 0.00 75 1017.0
20260510142706 84 225 3.0 8.0 0.00 0.01 0.00 76 1016.9
20260510142206 83 236 3.0 8.0 0.00 0.01 0.00 78 1016.9
20260510141137 83 242 3.0 8.0 0.00 0.01 0.00 80 1017.0
20260510140636 82 236 3.0 8.0 0.00 0.01 0.00 80 1017.0
20260510140106 82 235 3.0 9.0 0.00 0.01 0.00 82 1016.9
20260510135537 81 233 3.0 9.0 0.00 0.01 0.00 83 1016.9
20260510133936 79 184 2.0 7.0 0.00 0.01 0.00 86 1016.9
20260510132336 79 180 1.0 4.0 0.00 0.01 0.00 87 1016.8
20260510131306 78 215 2.0 3.0 0.00 0.01 0.00 87 1016.7
20260510125941 78 163 2.0 5.0 0.00 0.01 0.00 88 1016.6
20260510125737 78 163 2.0 5.0 0.00 0.01 0.00 88 1016.6
20260510125322 78 167 1.0 5.0 0.00 0.01 0.00 89 1016.6
20260510125237 78 167 1.0 5.0 0.00 0.01 0.00 89 1016.6
20260510124926 78 175 1.0 4.0 0.00 0.01 0.00 89 1016.7
20260510124738 78 175 1.0 4.0 0.00 0.01 0.00 89 1016.7
20260510121627 76 201 0.0 1.0 0.00 0.01 0.00 92 1016.4
20260510121507 76 201 0.0 1.0 0.00 0.01 0.00 92 1016.4
20260510120027 75 210 0.0 1.0 0.00 0.01 0.00 94 1015.9
20260510115907 75 210 0.0 1.0 0.00 0.01 0.00 94 1015.9
20260510113439 74 206 0.0 1.0 0.00 0.01 0.00 95 1015.7
20260510113236 74 206 0.0 1.0 0.00 0.01 0.00 95 1015.7
20260510112334 74 0 0.0 0.0 0.00 0.01 0.00 95 1015.4
20260510112136 74 0 0.0 0.0 0.00 0.01 0.00 95 1015.4
20260510111037 74 206 0.0 1.0 0.00 0.01 0.00 95 1015.3
20260510110711 74 0 0.0 0.0 0.00 0.01 0.00 95 1015.1
20260510110536 74 0 0.0 0.0 0.00 0.01 0.00 95 1015.1
20260510105836 74 0 0.0 0.0 0.00 0.01 0.00 94 1014.9
20260510105536 74 0 0.0 0.0 0.00 0.01 0.00 94 1014.9
20260510105006 74 0 0.0 0.0 0.00 0.01 0.00 94 1014.8
20260510103936 74 0 0.0 0.0 0.00 0.01 0.00 94 1014.6
20260510103614 74 0 0.0 0.0 0.00 0.01 0.00 94 1014.5
20260510103436 74 0 0.0 0.0 0.00 0.01 0.00 94 1014.5
20260510103115 74 202 0.0 1.0 0.00 0.01 0.00 94 1014.4
20260510102906 74 202 0.0 1.0 0.00 0.01 0.00 94 1014.4
20260510102406 74 202 0.0 1.0 0.00 0.01 0.00 94 1014.4
20260510101554 74 178 0.0 2.0 0.00 0.01 0.00 94 1014.0
20260510101336 74 178 0.0 2.0 0.00 0.01 0.00 94 1014.0
20260510100836 74 171 1.0 3.0 0.00 0.01 0.00 93 1013.8
20260510095307 74 178 1.0 5.0 0.00 0.01 0.00 93 1013.8
20260510093236 75 173 1.0 4.0 0.00 0.01 0.00 93 1013.8
20260510092706 75 176 1.0 4.0 0.00 0.01 0.00 93 1013.8
20260510092136 75 169 1.0 4.0 0.00 0.01 0.00 94 1013.7
20260510091638 75 160 1.0 4.0 0.00 0.01 0.00 94 1013.7
20260510091106 75 171 1.0 5.0 0.00 0.01 0.00 93 1013.6
20260510090606 75 169 2.0 5.0 0.00 0.01 0.00 93 1013.6
20260510085536 75 170 2.0 7.0 0.00 0.01 0.00 93 1013.6
20260510084633 75 178 2.0 7.0 0.00 0.01 0.00 92 1013.6
20260510084536 75 178 2.0 7.0 0.00 0.01 0.00 92 1013.6
20260510083731 75 169 1.0 5.0 0.00 0.01 0.00 92 1013.6
20260510083536 75 169 1.0 5.0 0.00 0.01 0.00 92 1013.6
20260510083006 75 177 1.0 5.0 0.00 0.01 0.00 93 1013.6
20260510082436 75 174 1.0 5.0 0.00 0.01 0.00 93 1013.7
20260510082049 75 165 1.0 5.0 0.00 0.01 0.00 93 1013.7
20260510081936 75 165 1.0 5.0 0.00 0.01 0.00 93 1013.7
20260510081436 75 171 1.0 5.0 0.00 0.01 0.00 93 1013.7
20260510080936 75 175 1.0 5.0 0.00 0.01 0.00 93 1013.7
20260510075906 75 175 1.0 2.0 0.00 0.01 0.00 93 1013.7
20260510075601 75 175 1.0 2.0 0.00 0.01 0.00 93 1013.7
20260510075336 75 175 1.0 2.0 0.00 0.01 0.00 93 1013.7
20260510074836 75 177 1.0 2.0 0.00 0.01 0.00 92 1013.8
20260510074224 75 176 1.0 3.0 0.00 0.01 0.00 92 1014.2
20260510073806 75 176 1.0 3.0 0.00 0.01 0.00 92 1014.2
20260510072706 75 179 0.0 1.0 0.00 0.01 0.00 93 1014.1
20260510072309 74 157 0.0 1.0 0.00 0.01 0.00 93 1014.0
20260510072206 74 157 0.0 1.0 0.00 0.01 0.00 93 1014.0
20260510071636 74 121 0.0 3.0 0.00 0.01 0.00 92 1014.0
20260510071106 75 119 0.0 3.0 0.00 0.01 0.00 92 1014.0
20260510065536 75 0 0.0 0.0 0.00 0.01 0.00 92 1014.2
20260510065006 75 0 0.0 0.0 0.00 0.01 0.00 92 1014.2
20260510064436 75 107 0.0 3.0 0.00 0.01 0.00 92 1014.4
20260510063936 75 102 1.0 3.0 0.00 0.01 0.00 92 1014.4
20260510063225 76 104 2.0 4.0 0.00 0.01 0.00 91 1014.4
20260510062336 76 104 2.0 4.0 0.00 0.01 0.00 91 1014.4
20260510061306 76 106 2.0 4.0 0.00 0.01 0.00 91 1014.5
20260510055236 76 106 1.0 3.0 0.00 0.01 0.00 90 1014.8
20260510055133 76 110 1.0 3.0 0.00 0.01 0.00 90 1014.8
20260510054707 76 110 1.0 3.0 0.00 0.01 0.00 90 1014.8
20260510054231 76 109 1.0 4.0 0.00 0.01 0.00 89 1014.9
20260510054136 76 109 1.0 4.0 0.00 0.01 0.00 89 1014.9
20260510053636 76 105 2.0 4.0 0.00 0.01 0.00 90 1014.9
20260510053411 76 103 3.0 4.0 0.00 0.01 0.00 90 1014.9
20260510053141 76 103 3.0 4.0 0.00 0.01 0.00 90 1014.9
20260510053106 76 103 3.0 4.0 0.00 0.01 0.00 90 1014.9
20260510052653 76 97 4.0 7.0 0.00 0.01 0.00 89 1014.8
20260510052606 76 97 4.0 7.0 0.00 0.01 0.00 89 1014.8
20260510052036 76 92 3.0 7.0 0.00 0.01 0.00 89 1014.9
20260510051506 76 96 4.0 8.0 0.00 0.01 0.00 89 1015.0
20260510051006 77 102 4.0 8.0 0.00 0.01 0.00 89 1015.1
20260510050506 77 105 3.0 6.0 0.00 0.01 0.00 89 1015.2
20260510044936 77 105 4.0 7.0 0.00 0.01 0.00 88 1015.4
20260510043907 77 98 4.0 8.0 0.00 0.01 0.00 88 1015.2
20260510043406 77 94 3.0 7.0 0.00 0.01 0.00 88 1015.4
20260510042336 77 96 2.0 4.0 0.00 0.01 0.00 88 1015.3
20260510041806 78 95 2.0 6.0 0.00 0.01 0.00 87 1015.3
20260510040810 78 93 2.0 7.0 0.00 0.01 0.00 87 1015.2
20260510040736 78 93 2.0 7.0 0.00 0.01 0.00 87 1015.2
20260510040236 78 93 2.0 4.0 0.00 0.01 0.00 87 1015.3
20260510035706 78 94 2.0 4.0 0.00 0.01 0.01 87 1015.4
20260510035136 78 83 2.0 4.0 0.00 0.01 0.01 87 1015.3
20260510034636 78 77 2.0 5.0 0.00 0.01 0.01 87 1015.3
20260510034136 78 87 2.0 7.0 0.00 0.01 0.01 87 1015.5
20260510033636 78 95 3.0 7.0 0.00 0.01 0.01 86 1015.4
20260510033136 78 92 3.0 7.0 0.00 0.01 0.01 86 1015.4
20260510032636 78 87 3.0 7.0 0.00 0.01 0.01 86 1015.4
20260510031606 79 87 3.0 8.0 0.00 0.01 0.01 85 1015.2
20260510031036 79 83 2.0 7.0 0.00 0.01 0.01 85 1015.3
20260510030536 79 64 1.0 2.0 0.00 0.01 0.01 84 1015.3
20260510030036 79 51 1.0 2.0 0.00 0.01 0.01 84 1015.2
20260510025506 79 53 1.0 2.0 0.00 0.01 0.01 84 1015.3
20260510025006 79 64 1.0 2.0 0.00 0.01 0.01 84 1015.2
20260510024436 79 67 1.0 3.0 0.00 0.01 0.01 83 1015.1
20260510023936 79 55 1.0 3.0 0.00 0.01 0.01 83 1015.1
20260510023406 80 45 1.0 2.0 0.00 0.01 0.01 83 1015.0
20260510022906 80 42 1.0 2.0 0.00 0.01 0.01 82 1015.0
20260510022406 80 53 1.0 2.0 0.00 0.01 0.01 83 1014.9
20260510021906 80 54 1.0 2.0 0.00 0.01 0.01 82 1015.0
20260510021336 80 41 1.0 3.0 0.00 0.01 0.01 82 1014.9
20260510020836 80 41 1.0 3.0 0.00 0.01 0.01 81 1014.8
20260510020306 80 40 1.0 3.0 0.00 0.01 0.01 81 1014.9
20260510015806 81 37 2.0 3.0 0.00 0.01 0.01 80 1014.8
20260510014736 81 30 2.0 4.0 0.00 0.01 0.01 80 1014.7
20260510014236 81 33 2.0 4.0 0.00 0.01 0.01 79 1014.6
20260510013736 82 47 2.0 4.0 0.00 0.01 0.01 79 1014.5
20260510013236 82 42 2.0 4.0 0.00 0.01 0.01 79 1014.3
20260510012706 82 38 3.0 4.0 0.00 0.01 0.01 78 1014.3
20260510012136 83 41 2.0 4.0 0.00 0.01 0.01 76 1014.2
20260510011636 84 37 2.0 4.0 0.00 0.01 0.01 74 1014.1
20260510011136 84 15 2.0 4.0 0.00 0.01 0.01 69 1014.0
20260510010636 84 328 1.0 3.0 0.00 0.01 0.01 63 1013.9
20260510010106 84 312 1.0 3.0 0.00 0.01 0.01 62 1013.6
20260510005536 85 312 2.0 3.0 0.00 0.01 0.01 61 1013.5
20260510005006 85 312 1.0 3.0 0.00 0.01 0.01 61 1013.4
20260510003936 85 308 1.0 2.0 0.00 0.01 0.01 60 1013.2
20260510003436 85 301 1.0 2.0 0.00 0.01 0.01 60 1013.1
20260510002936 85 299 1.0 3.0 0.00 0.01 0.01 60 1013.1
20260510002436 85 305 1.0 3.0 0.00 0.01 0.01 59 1013.1
20260510001936 86 309 2.0 3.0 0.00 0.01 0.01 59 1013.0
20260510001436 86 307 2.0 4.0 0.00 0.01 0.01 59 1012.9
20260510000906 86 305 2.0 4.0 0.00 0.01 0.01 59 1012.8
20260510000336 86 298 2.0 4.0 0.00 0.01 0.01 58 1012.6
20260509235836 86 297 2.0 4.0 0.00 0.01 0.01 58 1012.6
20260509234236 87 292 2.0 7.0 0.00 0.01 0.01 59 1012.4
20260509233706 87 293 2.0 7.0 0.00 0.01 0.01 60 1012.4
20260509233206 88 294 3.0 7.0 0.00 0.01 0.01 60 1012.3
20260509232706 88 291 3.0 7.0 0.00 0.01 0.01 60 1012.1
20260509232206 88 288 3.0 7.0 0.00 0.01 0.01 60 1012.1
20260509231636 88 278 4.0 10.0 0.00 0.01 0.01 59 1012.1
20260509230606 89 277 4.0 10.0 0.00 0.01 0.01 58 1012.0
20260509230106 89 276 4.0 10.0 0.00 0.01 0.01 57 1011.9
20260509225606 89 288 3.0 8.0 0.00 0.01 0.01 57 1011.8
20260509225036 90 300 3.0 8.0 0.00 0.01 0.01 56 1011.8
20260509224036 90 269 4.0 9.0 0.00 0.01 0.01 56 1011.6
20260509223006 90 290 4.0 8.0 0.00 0.01 0.01 56 1011.6
20260509222436 91 288 4.0 8.0 0.00 0.01 0.01 55 1011.6
20260509221906 91 278 3.0 9.0 0.00 0.01 0.01 56 1011.6
20260509221406 91 270 3.0 9.0 0.00 0.01 0.01 56 1011.6
20260509220906 91 274 4.0 11.0 0.00 0.01 0.01 56 1011.5
20260509220406 91 287 4.0 11.0 0.00 0.01 0.01 56 1011.5
20260509215836 92 292 4.0 8.0 0.00 0.01 0.01 56 1011.5
20260509215336 91 284 4.0 7.0 0.00 0.01 0.01 56 1011.5
20260509214836 91 289 3.0 7.0 0.00 0.01 0.01 57 1011.4
20260509214306 91 290 3.0 7.0 0.00 0.01 0.01 58 1011.4
20260509213306 90 238 3.0 7.0 0.00 0.01 0.01 61 1011.3
20260509212806 89 202 3.0 7.0 0.01 0.01 0.01 68 1011.3
20260509212236 89 181 3.0 7.0 0.01 0.01 0.01 69 1011.2
20260509211736 88 175 3.0 7.0 0.01 0.01 0.01 71 1011.1
20260509211236 87 180 2.0 6.0 0.01 0.01 0.01 71 1011.3
20260509210707 86 187 2.0 5.0 0.01 0.01 0.01 75 1011.2
20260509210206 86 202 1.0 5.0 0.01 0.01 0.01 80 1011.2
20260509205636 84 239 2.0 4.0 0.01 0.01 0.01 79 1011.2
20260509205136 84 244 2.0 4.0 0.01 0.01 0.01 78 1011.2
20260509204606 83 225 2.0 15.0 0.01 0.01 0.01 81 1011.2
20260509203606 83 245 7.0 20.0 0.01 0.01 0.01 79 1011.3
20260509203036 86 262 6.0 20.0 0.00 0.00 0.00 68 1011.4
20260509201936 92 273 3.0 8.0 0.00 0.00 0.00 54 1011.2
20260509201406 92 265 4.0 8.0 0.00 0.00 0.00 54 1011.3
20260509200836 92 261 4.0 8.0 0.00 0.00 0.00 55 1011.3
20260509195236 93 265 4.0 9.0 0.00 0.00 0.00 53 1011.5
20260509194706 93 263 4.0 9.0 0.00 0.00 0.00 54 1011.4
20260509194136 93 255 4.0 9.0 0.00 0.00 0.00 53 1011.6
20260509193636 93 245 4.0 9.0 0.00 0.00 0.00 53 1011.6
20260509193155 93 249 4.0 9.0 0.00 0.00 0.00 54 1011.6
20260509193106 93 249 4.0 9.0 0.00 0.00 0.00 54 1011.6
20260509192606 93 254 3.0 9.0 0.00 0.00 0.00 53 1011.7
20260509192256 94 222 3.0 10.0 0.00 0.00 0.00 52 1011.8
20260509192106 94 222 3.0 10.0 0.00 0.00 0.00 52 1011.8
20260509191606 94 236 5.0 11.0 0.00 0.00 0.00 52 1011.8
20260509191036 94 249 4.0 11.0 0.00 0.00 0.00 52 1011.9
20260509190536 94 262 3.0 9.0 0.00 0.00 0.00 52 1012.0
20260509190006 94 254 4.0 11.0 0.00 0.00 0.00 51 1011.9
20260509185506 94 243 5.0 12.0 0.00 0.00 0.00 53 1012.1
20260509184936 94 239 4.0 12.0 0.00 0.00 0.00 52 1012.1
20260509184406 94 235 3.0 9.0 0.00 0.00 0.00 51 1012.1
20260509183906 94 240 3.0 9.0 0.00 0.00 0.00 52 1012.2
20260509183406 94 245 4.0 13.0 0.00 0.00 0.00 52 1012.3
20260509182906 94 239 4.0 13.0 0.00 0.00 0.00 52 1012.3
20260509182336 94 233 3.0 10.0 0.00 0.00 0.00 53 1012.4
20260509181836 94 264 4.0 10.0 0.00 0.00 0.00 52 1012.4
20260509181336 94 273 4.0 10.0 0.00 0.00 0.00 51 1012.5
20260509180836 93 258 4.0 12.0 0.00 0.00 0.00 53 1012.5
20260509180336 93 244 4.0 12.0 0.00 0.00 0.00 51 1012.6
20260509175805 93 237 5.0 12.0 0.00 0.00 0.00 53 1012.4
20260509175236 93 238 5.0 14.0 0.00 0.00 0.00 53 1012.6
20260509174706 93 253 4.0 14.0 0.00 0.00 0.00 52 1012.6
20260509174206 93 248 6.0 14.0 0.00 0.00 0.00 54 1012.7
20260509173707 93 249 6.0 14.0 0.00 0.00 0.00 54 1012.7
20260509173135 93 258 5.0 11.0 0.00 0.00 0.00 53 1012.8
20260509172636 93 266 4.0 11.0 0.00 0.00 0.00 54 1012.7
20260509172106 93 260 5.0 11.0 0.00 0.00 0.00 53 1012.8
20260509171605 92 256 6.0 11.0 0.00 0.00 0.00 53 1012.9
20260509171035 93 251 6.0 14.0 0.00 0.00 0.00 53 1012.9
20260509165936 93 242 5.0 11.0 0.00 0.00 0.00 52 1012.8
20260509165436 92 238 5.0 11.0 0.00 0.00 0.00 54 1012.9
20260509163406 92 237 5.0 13.0 0.00 0.00 0.00 53 1013.0
20260509162835 92 238 5.0 11.0 0.00 0.00 0.00 55 1013.1
20260509162336 92 236 5.0 17.0 0.00 0.00 0.00 55 1013.1
20260509161836 91 229 5.0 17.0 0.00 0.00 0.00 55 1013.1
20260509161336 90 227 5.0 13.0 0.00 0.00 0.00 57 1013.3
20260509160806 90 236 5.0 13.0 0.00 0.00 0.00 56 1013.3
20260509155236 90 215 4.0 12.0 0.00 0.00 0.00 57 1013.3
20260509154236 89 233 4.0 9.0 0.00 0.00 0.00 60 1013.6